LiveATC.Net - Listen to live air traffic control over the Internet!
Airport/ARTCC Code
Frequency Search
(e.g., 124.400, 128.75)
Site-wide search
 


Browse Feeds
Top 50 Feeds
HF Oceanic Feeds
Coverage Map
Bad Weather Areas

LiveATC FAQ
Offer LiveATC feed
Contact LiveATC.net
Press Inquiries

LiveATC on iPhone
LiveATC on Android

LiveATC Mobile
(Mobile browser)

ATC Audio Archives
Interesting Recordings

LiveATC Forums

Home Page
About LiveATC.net


Terms of Use
Privacy Policy

AIRMETs/SIGMETs

FAA Airport Status
NAS Status
Arrival Demand


Server Software By:
Icecast.org
Liquidsoap

Select an area of interest:
U.S. Feeds: Class B Airports | Class C Airports | Class D/Other Airports | ARTCC (Centers)
International Feeds: Canada | Europe | Oceania | Asia | South America | North/Central America | Africa
Misc Feeds: HF Feeds
Search by ICAO/IATA airport code:   (e.g., kbos, kjfk, lax, eham, etc.)


Currently Available Live Feeds: 3041
Status Updated: Sun Oct 02 2022 20:38:38 UTC


NOTICE

Unauthorized use prohibited. See LiveATC.net Terms of Service

Oceania/Pacific Airport Feeds

 

YADG CTAF (Archives)
Sellicks Hill, South Australia, Australia

Feed Status: UP
Listen in your browser - HTML5 player(in browser, HTML5)
Click here to listen with your own player(launches your MP3 player)

YADG Flight Activity (Flightaware)

Listeners: 0 out of 2249 total

Aldinga CTAF: 127.150

YBAF Gnd/Twr #2 (Archives)
Brisbane, Queensland, Australia

Feed Status: UP
Listen in your browser - HTML5 player(in browser, HTML5)
Click here to listen with your own player(launches your MP3 player)

YBAF Flight Activity (Flightaware)

Listeners: 3 out of 2249 total

Brisbane Ground: 119.900
Brisbane Tower (North): 123.600
Brisbane Tower/CTAF (South): 118.100

YBAS Tower/Center (Archives)
Alice Springs, Northern Territory, Australia

Feed Status: UP
Listen in your browser - HTML5 player(in browser, HTML5)
Click here to listen with your own player(launches your MP3 player)

YBAS 022000Z AUTO 09007KT 9999 // NCD 19/03 Q1010 RF00.0/000.0

YBAS Flight Activity (Flightaware)

Listeners: 3 out of 2249 total

Alice Tower/CTAF: 118.300
Melbourne Center (above FL280): 128.850
Melbourne Center (below FL280): 119.800

Brisbane Center (128.6/YSSY) (Archives)
Brisbane, Queensland, Australia

Feed Status: UP
Listen in your browser - HTML5 player(in browser, HTML5)
Click here to listen with your own player(launches your MP3 player)

YSSY 022000Z 31006KT 9999 FEW020 11/09 Q1021

YSSY Flight Activity (Flightaware)

Listeners: 4 out of 2249 total

Brisbane Center: 128.600

YBBN Center
Brisbane, Queensland, Australia

Feed Status: DOWN
Offline since: 2022-07-30 00:45:06 UTC

YBBN 022000Z 21009KT 9999 FEW025 12/11 Q1019

Brisbane Center (East): 132.850
Brisbane Center (North): 123.000
Brisbane Center (South): 128.150
Brisbane Center (West): 134.300

YBBN Twr/App/Center (Archives)
Brisbane, Queensland, Australia

Feed Status: UP
Listen in your browser - HTML5 player(in browser, HTML5)
Click here to listen with your own player(launches your MP3 player)

YBBN 022000Z 21009KT 9999 FEW025 12/11 Q1019

YBBN Flight Activity (Flightaware)

Listeners: 3 out of 2249 total

Brisbane Center (East): 134.300
Brisbane Center (West): 135.600
YBBN Approach North-West: 124.700
YBBN Approach South-East: 125.600
YBBN Tower 01L/19R (Northern Runway): 118.000
YBBN Tower 01R/19L (Southern Runway): 120.500

YBBN Twr/App/Dep (Archives)
Brisbane, Queensland, Australia

Feed Status: UP
Listen in your browser - HTML5 player(in browser, HTML5)
Click here to listen with your own player(launches your MP3 player)

YBBN 022000Z 21009KT 9999 FEW025 12/11 Q1019

YBBN Flight Activity (Flightaware)

Listeners: 3 out of 2249 total

Brisbane Approach: 123.500
Brisbane Approach/Departure (North): 124.700
Brisbane Approach/Departure (South): 125.600
Brisbane Departure: 128.300
Brisbane Departure: 133.450
Brisbane Tower: 120.500

YBCG Approach (Archives)
Gold Coast City, Queensland, Australia

Feed Status: UP
Listen in your browser - HTML5 player(in browser, HTML5)
Click here to listen with your own player(launches your MP3 player)

YBCG 022000Z AUTO 21009KT 9999 // NCD 14/10 Q1019 RF00.0/000.8

YBCG Flight Activity (Flightaware)

Listeners: 1 out of 2249 total

Brisbane Approach: 123.500

YBCG Area CTAF (Archives)
Gold Coast City, Queensland, Australia

Feed Status: UP
Listen in your browser - HTML5 player(in browser, HTML5)
Click here to listen with your own player(launches your MP3 player)

YBCG 022000Z AUTO 21009KT 9999 // NCD 14/10 Q1019 RF00.0/000.8

YBCG Flight Activity (Flightaware)

Listeners: 2 out of 2249 total

YBCG Training/YTYH/YMUR : 127.550

YBCG Brisbane Centre (Archives)
Gold Coast City, Queensland, Australia

Feed Status: UP
Listen in your browser - HTML5 player(in browser, HTML5)
Click here to listen with your own player(launches your MP3 player)

YBCG 022000Z AUTO 21009KT 9999 // NCD 14/10 Q1019 RF00.0/000.8

YBCG Flight Activity (Flightaware)

Listeners: 3 out of 2249 total

Brisbane Centre/Radar: 119.500

YBCG Ground (Archives)
Gold Coast City, Queensland, Australia

Feed Status: UP
Listen in your browser - HTML5 player(in browser, HTML5)
Click here to listen with your own player(launches your MP3 player)

YBCG 022000Z AUTO 21009KT 9999 // NCD 14/10 Q1019 RF00.0/000.8

YBCG Flight Activity (Flightaware)

Listeners: 1 out of 2249 total

Gold Coast Ground: 121.800

YBCG Ground/Tower (Archives)
Gold Coast City, Queensland, Australia

Feed Status: UP
Listen in your browser - HTML5 player(in browser, HTML5)
Click here to listen with your own player(launches your MP3 player)

YBCG 022000Z AUTO 21009KT 9999 // NCD 14/10 Q1019 RF00.0/000.8

YBCG Flight Activity (Flightaware)

Listeners: 1 out of 2249 total

Gold Coast Ground: 121.800
Gold Coast Tower: 118.700

YBCG Tower (Archives)
Gold Coast City, Queensland, Australia

Feed Status: UP
Listen in your browser - HTML5 player(in browser, HTML5)
Click here to listen with your own player(launches your MP3 player)

YBCG 022000Z AUTO 21009KT 9999 // NCD 14/10 Q1019 RF00.0/000.8

YBCG Flight Activity (Flightaware)

Listeners: 1 out of 2249 total

Gold Coast Tower: 118.700

YBCS App/Dep #1 (Archives)
Cairns, Queensland, Australia

Feed Status: UP
Listen in your browser - HTML5 player(in browser, HTML5)
Click here to listen with your own player(launches your MP3 player)

YBCS 022000Z AUTO 27001KT 9999 // NCD 21/19 Q1012

YBCS Flight Activity (Flightaware)

Listeners: 1 out of 2249 total

Cairns Approach/Departure: 118.400

YBCS App/Dep #2 (Archives)
Cairns, Queensland, Australia

Feed Status: UP
Listen in your browser - HTML5 player(in browser, HTML5)
Click here to listen with your own player(launches your MP3 player)

YBCS 022000Z AUTO 27001KT 9999 // NCD 21/19 Q1012

YBCS Flight Activity (Flightaware)

Listeners: 1 out of 2249 total

Cairns Approach/Departure: 126.100

YBCS App/Dep (all) (Archives)
Cairns, Queensland, Australia

Feed Status: UP
Listen in your browser - HTML5 player(in browser, HTML5)
Click here to listen with your own player(launches your MP3 player)

YBCS 022000Z AUTO 27001KT 9999 // NCD 21/19 Q1012

YBCS Flight Activity (Flightaware)

Listeners: 1 out of 2249 total

Cairns Approach/Departure: 126.100
Cairns Approach/Departure: 118.400

YBCS Brisbane Centre (Archives)
Cairns, Queensland, Australia

Feed Status: UP
Listen in your browser - HTML5 player(in browser, HTML5)
Click here to listen with your own player(launches your MP3 player)

YBCS 022000Z AUTO 27001KT 9999 // NCD 21/19 Q1012

YBCS Flight Activity (Flightaware)

Listeners: 3 out of 2249 total

Brisbane Centre: 121.200

YBCS Emergency/Guard (Archives)
Cairns, Queensland, Australia

Feed Status: UP
Listen in your browser - HTML5 player(in browser, HTML5)
Click here to listen with your own player(launches your MP3 player)

YBCS 022000Z AUTO 27001KT 9999 // NCD 21/19 Q1012

YBCS Flight Activity (Flightaware)

Listeners: 1 out of 2249 total

Emergency/Guard: 121.500

YBCS Ground (Archives)
Cairns, Queensland, Australia

Feed Status: UP
Listen in your browser - HTML5 player(in browser, HTML5)
Click here to listen with your own player(launches your MP3 player)

YBCS 022000Z AUTO 27001KT 9999 // NCD 21/19 Q1012

YBCS Flight Activity (Flightaware)

Listeners: 1 out of 2249 total

Cairns Ground: 121.700

YBCS Ground/Tower (Archives)
Cairns, Queensland, Australia

Feed Status: UP
Listen in your browser - HTML5 player(in browser, HTML5)
Click here to listen with your own player(launches your MP3 player)

YBCS 022000Z AUTO 27001KT 9999 // NCD 21/19 Q1012

YBCS Flight Activity (Flightaware)

Listeners: 1 out of 2249 total

Cairns Ground: 121.700
Cairns Tower: 124.900

YBCS Tower (Archives)
Cairns, Queensland, Australia

Feed Status: UP
Listen in your browser - HTML5 player(in browser, HTML5)
Click here to listen with your own player(launches your MP3 player)

YBCS 022000Z AUTO 27001KT 9999 // NCD 21/19 Q1012

YBCS Flight Activity (Flightaware)

Listeners: 1 out of 2249 total

Cairns Tower: 124.900

YBCV CTAF/Brisbane Center (Archives)
Charleville, Queensland, Australia

Feed Status: UP
Listen in your browser - HTML5 player(in browser, HTML5)
Click here to listen with your own player(launches your MP3 player)


YBCV Flight Activity (Flightaware)

Listeners: 3 out of 2249 total

Brisbane Center: 124.800
Charleville CTAF/UNICOM: 126.700

YBDG Center (Archives)
Bendigo, Victoria, Australia

Feed Status: UP
Listen in your browser - HTML5 player(in browser, HTML5)
Click here to listen with your own player(launches your MP3 player)

YBDG Flight Activity (Flightaware)

Listeners: 0 out of 2249 total

Melbourne Center: 126.800

YBDG CTAF (Archives)
Bendigo, Victoria, Australia

Feed Status: UP
Listen in your browser - HTML5 player(in browser, HTML5)
Click here to listen with your own player(launches your MP3 player)

YBDG Flight Activity (Flightaware)

Listeners: 1 out of 2249 total

Bendigo CTAF: 119.300

YBOK Del/Gnd/Twr/App (Archives)
Oakey, Queensland, Australia

Feed Status: UP
Listen in your browser - HTML5 player(in browser, HTML5)
Click here to listen with your own player(launches your MP3 player)

YBOK Flight Activity (Flightaware)

Listeners: 3 out of 2249 total

Brisbane Center/FSS: 121.200
Oakey Approach: 125.400
Oakey Approach: 123.700
Oakey Approach (Final): 135.850
Oakey Clearance Delivery: 133.350
Oakey CTAF (+YTWB/YBWW): 127.650
Oakey Ground: 121.900
Oakey Tower: 120.100

YBSS CTAF (Archives)
Bacchus Marsh, Victoria, Australia

Feed Status: UP
Listen in your browser - HTML5 player(in browser, HTML5)
Click here to listen with your own player(launches your MP3 player)

YBSS Flight Activity (Flightaware)

Listeners: 0 out of 2249 total

Bacchus Marsh CTAF: 118.800

YBSS Glider 122.5 (Archives)
Bacchus Marsh, Victoria, Australia

Feed Status: UP
Listen in your browser - HTML5 player(in browser, HTML5)
Click here to listen with your own player(launches your MP3 player)

YBSS Flight Activity (Flightaware)

Listeners: 0 out of 2249 total

Bacchus Marsh Glider Chat: 122.500

YBSS Glider 122.7 (Archives)
Bacchus Marsh, Victoria, Australia

Feed Status: UP
Listen in your browser - HTML5 player(in browser, HTML5)
Click here to listen with your own player(launches your MP3 player)

YBSS Flight Activity (Flightaware)

Listeners: 0 out of 2249 total

Bacchus Marsh Glider Chat: 122.700

YBSS Glider 122.9 (Archives)
Bacchus Marsh, Victoria, Australia

Feed Status: UP
Listen in your browser - HTML5 player(in browser, HTML5)
Click here to listen with your own player(launches your MP3 player)

YBSS Flight Activity (Flightaware)

Listeners: 0 out of 2249 total

Bacchus Marsh Glider Chat: 122.900

YBTL Approach/Departure (Archives)
Townsville, Queensland, Australia

Feed Status: UP
Listen in your browser - HTML5 player(in browser, HTML5)
Click here to listen with your own player(launches your MP3 player)

YBTL 022000Z AUTO 03003KT 9999 // NCD 22/18 Q1012

YBTL Flight Activity (Flightaware)

Listeners: 2 out of 2249 total

Townsville Approach/Departure: 126.800

YBTL ATIS (Archives)
Townsville, Queensland, Australia

Feed Status: UP
Listen in your browser - HTML5 player(in browser, HTML5)
Click here to listen with your own player(launches your MP3 player)

YBTL 022000Z AUTO 03003KT 9999 // NCD 22/18 Q1012

YBTL Flight Activity (Flightaware)

Listeners: 2 out of 2249 total

Townsville ATIS: 133.500

YBTL Brisbane Center (Archives)
Townsville, Queensland, Australia

Feed Status: UP
Listen in your browser - HTML5 player(in browser, HTML5)
Click here to listen with your own player(launches your MP3 player)

YBTL 022000Z AUTO 03003KT 9999 // NCD 22/18 Q1012

YBTL Flight Activity (Flightaware)

Listeners: 3 out of 2249 total

Brisbane Center: 120.550

YBTL Clearance Delivery (Archives)
Townsville, Queensland, Australia

Feed Status: UP
Listen in your browser - HTML5 player(in browser, HTML5)
Click here to listen with your own player(launches your MP3 player)

YBTL 022000Z AUTO 03003KT 9999 // NCD 22/18 Q1012

YBTL Flight Activity (Flightaware)

Listeners: 2 out of 2249 total

Townsville Clearance Delivery: 128.100

YBTL Ground (Archives)
Townsville, Queensland, Australia

Feed Status: UP
Listen in your browser - HTML5 player(in browser, HTML5)
Click here to listen with your own player(launches your MP3 player)

YBTL 022000Z AUTO 03003KT 9999 // NCD 22/18 Q1012

YBTL Flight Activity (Flightaware)

Listeners: 2 out of 2249 total

Townsville Ground: 119.450

YBTL Tower (Archives)
Townsville, Queensland, Australia

Feed Status: UP
Listen in your browser - HTML5 player(in browser, HTML5)
Click here to listen with your own player(launches your MP3 player)

YBTL 022000Z AUTO 03003KT 9999 // NCD 22/18 Q1012

YBTL Flight Activity (Flightaware)

Listeners: 3 out of 2249 total

Townsville Tower: 118.300

YGAW CTAF (Archives)
Gawler, South Australia, Australia

Feed Status: UP
Listen in your browser - HTML5 player(in browser, HTML5)
Click here to listen with your own player(launches your MP3 player)


YGAW Flight Activity (Flightaware)

Listeners: 0 out of 2249 total

Gawler CTAF: 126.550

YGLA CTAF
Gladstone, Queensland, Australia

Feed Status: DOWN
Offline since: 2022-08-07 00:32:24 UTC

YGLA 022000Z AUTO 16005KT 9999 // SCT090 17/13 Q1017 RF00.0/010.6

Gladstone CTF/Multicom: 118.800

YGTH AWIS
Griffith, New South Wales, Australia

Feed Status: DOWN
Offline since: 2022-09-15 20:52:23 UTC


Griffith AWIS Weather: 132.950

YGTH CTAF
Griffith, New South Wales, Australia

Feed Status: DOWN
Offline since: 2022-09-15 20:52:23 UTC


Griffith CTAF: 126.550

YIVL CTAF/Center (Archives)
Inverell, New South Wales, Australia

Feed Status: UP
Listen in your browser - HTML5 player(in browser, HTML5)
Click here to listen with your own player(launches your MP3 player)

YIVL Flight Activity (Flightaware)

Listeners: 1 out of 2249 total

Brisbane Center: 132.350
Brisbane Center: 127.100
Brisbane Center: 130.900
Brisbane Center (high alt SE Inverell): 130.100
Brisbane Center (high alt): 133.000
Brisbane Center (NE Inverell): 134.200
Brisbane Center (North and East Inverell): 127.200
Brisbane Center (North Inverell high alt): 135.600
Brisbane Center (North Inverell): 121.200
Brisbane Center (SE Inverell): 125.750
Inverell CTAF: 126.700
Tamworth Tower: 119.400

YMAV Del/App (Archives)
Avalon, Victoria, Australia

Feed Status: UP
Listen in your browser - HTML5 player(in browser, HTML5)
Click here to listen with your own player(launches your MP3 player)

YMAV 022000Z AUTO 29003KT 9999 // NCD 05/04 Q1021 RF00.0/000.0

YMAV Flight Activity (Flightaware)

Listeners: 3 out of 2249 total

Avalon Clearance Delivery: 120.100
Melbourne Approach/Departure: 133.550

YMHB Twr/Centre/Misc (Archives)
Cambridge, Tasmania, Australia

Feed Status: UP
Listen in your browser - HTML5 player(in browser, HTML5)
Click here to listen with your own player(launches your MP3 player)

YMHB 022000Z 31006KT 9999 FEW016 BKN250 07/06 Q1020 RF00.0/000.0

YMHB Flight Activity (Flightaware)

Listeners: 0 out of 2249 total

Air to Air: 123.450
Area CTAF: 126.700
Helicopter Resources Company: 126.400
Hobart Approach: 125.550
Hobart Tower: 118.100
Jetstar Company: 130.925
Launceston Approach: 123.800
Launceston Tower: 118.700
Melbourne Centre: 126.500
Qantas Company: 129.500
Rotor Lift Company: 131.600
Virgin Company: 130.350

YMIA CTAF (Archives)
Mildura, Victoria, Australia

Feed Status: UP
Listen in your browser - HTML5 player(in browser, HTML5)
Click here to listen with your own player(launches your MP3 player)


YMIA Flight Activity (Flightaware)

Listeners: 0 out of 2249 total

Mildura CTAF: 118.800

YMIA Melbourne Center (Archives)
Mildura, Victoria, Australia

Feed Status: UP
Listen in your browser - HTML5 player(in browser, HTML5)
Click here to listen with your own player(launches your MP3 player)


YMIA Flight Activity (Flightaware)

Listeners: 0 out of 2249 total

Melbourne Center: 122.100

YMML Twr/App/Center (Archives)
Melbourne, Victoria, Australia

Feed Status: UP
Listen in your browser - HTML5 player(in browser, HTML5)
Click here to listen with your own player(launches your MP3 player)

YMML 022000Z 01008KT CAVOK 06/05 Q1020

YMML Flight Activity (Flightaware)

Listeners: 7 out of 2249 total

Air Ambulance: 132.750
DSE & Other Company: 119.100
Essendon Tower: 125.100
Inter-Pilot: 123.450
Jetstar Company: 130.925
Melbourne ACD: 127.200
Melbourne Approach: 132.000
Melbourne Centre: 130.300
Melbourne Centre: 128.500
Melbourne Centre: 126.800
Melbourne Centre: 125.800
Melbourne Centre: 125.700
Melbourne Centre: 125.200
Melbourne Centre: 123.750
Melbourne Centre: 122.400
Melbourne Departure: 118.900
Melbourne Departure: 129.400
Melbourne Tower: 120.500
Moorabbin Tower (East): 118.100
Moorabbin Tower (West): 123.000
Police Air Wing: 131.600
Qantas Company: 130.850
Qantas Company: 129.500
Rex Company: 126.450
Royal Victorian Aero Club Company: 128.700
Royal Victorian Aero Club Company: 133.400

YPAD Del/Gnd/Twr/App (Archives)
Adelaide, South Australia, Australia

Feed Status: UP
Listen in your browser - HTML5 player(in browser, HTML5)
Click here to listen with your own player(launches your MP3 player)

YPAD 022000Z 04011KT CAVOK 18/03 Q1016

YPAD Flight Activity (Flightaware)

Listeners: 1 out of 2249 total

Adelaide Approach (East of Adelaide): 118.200
Adelaide Approach (East of Adelaide): 130.450
Adelaide Approach (Kangaroo Island): 123.050
Adelaide Approach (North of Adelaide): 128.600
Adelaide Approach (West of Adelaide): 124.200
Adelaide Clearance Delivery: 126.100
Adelaide Ground: 121.700
Adelaide Tower: 120.500

YPAD Gnd/Twr/App/Center (Archives)
Adelaide, South Australia, Australia

Feed Status: UP
Listen in your browser - HTML5 player(in browser, HTML5)
Click here to listen with your own player(launches your MP3 player)

YPAD 022000Z 04011KT CAVOK 18/03 Q1016

YPAD Flight Activity (Flightaware)

Listeners: 2 out of 2249 total

Adelaide Approach (East of Adelaide): 118.200
Adelaide Approach (East of Adelaide): 130.450
Adelaide Approach (Kangaroo Island): 123.050
Adelaide Approach (North of Adelaide): 128.600
Adelaide Approach (West of Adelaide): 124.200
Adelaide Clearance Delivery: 126.100
Adelaide Ground: 121.700
Adelaide Tower: 120.500
Flight Watch: 135.750
Melbourne Centre: 124.300
Melbourne Centre ( East of Adelaide): 125.300
Melbourne Centre ( Pt Augusta, Pt Pirie, Whyalla): 123.900
Melbourne Centre (Mildura): 122.100
Melbourne Centre (North of Adelaide): 122.400
Melbourne Centre (Pt Lincoln): 125.900
Melbourne Centre (West of Adelaide ): 127.050

YPDN Gnd/Twr/App/Dep (Archives)
Darwin, Northern Territory, Australia

Feed Status: UP
Listen in your browser - HTML5 player(in browser, HTML5)
Click here to listen with your own player(launches your MP3 player)

YPDN 022000Z 07001KT CAVOK 26/24 Q1008

YPDN Flight Activity (Flightaware)

Listeners: 3 out of 2249 total

Darwin Approach: 134.100
Darwin Arrival: 125.200
Darwin Departure: 119.550
Darwin Ground: 121.800
Darwin Tower: 133.100

YPJT Gnd/Twr (Archives)
Perth, Western Australia, Australia

Feed Status: UP
Listen in your browser - HTML5 player(in browser, HTML5)
Click here to listen with your own player(launches your MP3 player)

YPJT 022000Z AUTO 15005KT 070V190 9999 // OVC075 13/05 Q1018

YPJT Flight Activity (Flightaware)

Listeners: 0 out of 2249 total

Jandakot Ground: 124.300
Jandakot Tower: 119.400
Jandakot Tower/CTAF: 118.100

YPJT Perth Center (Archives)
Perth, Western Australia, Australia

Feed Status: UP
Listen in your browser - HTML5 player(in browser, HTML5)
Click here to listen with your own player(launches your MP3 player)

YPJT 022000Z AUTO 15005KT 070V190 9999 // OVC075 13/05 Q1018

YPJT Flight Activity (Flightaware)

Listeners: 0 out of 2249 total

Perth Center: 135.250

YPMQ CTAF (Archives)
Port Macquarie, New South Wales, Australia

Feed Status: UP
Listen in your browser - HTML5 player(in browser, HTML5)
Click here to listen with your own player(launches your MP3 player)

YPMQ Flight Activity (Flightaware)

Listeners: 1 out of 2249 total

Port Macquarie CTAF/Multicom: 118.100

YPPH Approach #1 (Archives)
Perth, Western Australia, Australia

Feed Status: UP
Listen in your browser - HTML5 player(in browser, HTML5)
Click here to listen with your own player(launches your MP3 player)

YPPH 022000Z 10008KT CAVOK 12/06 Q1017

YPPH Flight Activity (Flightaware)

Listeners: 1 out of 2249 total

Perth Approach: 123.600

YPPH Approach #2 (Archives)
Perth, Western Australia, Australia

Feed Status: UP
Listen in your browser - HTML5 player(in browser, HTML5)
Click here to listen with your own player(launches your MP3 player)

YPPH 022000Z 10008KT CAVOK 12/06 Q1017

YPPH Flight Activity (Flightaware)

Listeners: 0 out of 2249 total

Perth Approach: 123.600

YPPH Departure (Archives)
Perth, Western Australia, Australia

Feed Status: UP
Listen in your browser - HTML5 player(in browser, HTML5)
Click here to listen with your own player(launches your MP3 player)

YPPH 022000Z 10008KT CAVOK 12/06 Q1017

YPPH Flight Activity (Flightaware)

Listeners: 3 out of 2249 total

Perth Departure: 118.700

YPPH Ground (Archives)
Perth, Western Australia, Australia

Feed Status: UP
Listen in your browser - HTML5 player(in browser, HTML5)
Click here to listen with your own player(launches your MP3 player)

YPPH 022000Z 10008KT CAVOK 12/06 Q1017

YPPH Flight Activity (Flightaware)

Listeners: 0 out of 2249 total

Perth Ground: 121.700

YPPH Tower #1 (Archives)
Perth, Western Australia, Australia

Feed Status: UP
Listen in your browser - HTML5 player(in browser, HTML5)
Click here to listen with your own player(launches your MP3 player)

YPPH 022000Z 10008KT CAVOK 12/06 Q1017

YPPH Flight Activity (Flightaware)

Listeners: 3 out of 2249 total

Perth Tower: 127.400

YPPH Tower #2 (Archives)
Perth, Western Australia, Australia

Feed Status: UP
Listen in your browser - HTML5 player(in browser, HTML5)
Click here to listen with your own player(launches your MP3 player)

YPPH 022000Z 10008KT CAVOK 12/06 Q1017

YPPH Flight Activity (Flightaware)

Listeners: 0 out of 2249 total

Perth Tower: 127.400

YRYW 122.5
Raywood, Victoria, Australia

Feed Status: DOWN
Offline since: 2022-08-28 05:50:41 UTC



YRYW 122.7
Raywood, Victoria, Australia

Feed Status: DOWN
Offline since: 2022-08-28 05:50:41 UTC



YRYW 122.9
Raywood, Victoria, Australia

Feed Status: DOWN
Offline since: 2022-08-28 05:50:41 UTC



YRYW CTAF
Raywood, Victoria, Australia

Feed Status: DOWN
Offline since: 2022-08-28 04:50:23 UTC


Raywood CTAF: 119.300

YSBK ATIS (Archives)
Bankstown, New South Wales, Australia

Feed Status: UP
Listen in your browser - HTML5 player(in browser, HTML5)
Click here to listen with your own player(launches your MP3 player)

YSBK Flight Activity (Flightaware)

Listeners: 0 out of 2249 total

Bankstown ATIS: 120.900

YSBK Tower (Archives)
Bankstown, New South Wales, Australia

Feed Status: UP
Listen in your browser - HTML5 player(in browser, HTML5)
Click here to listen with your own player(launches your MP3 player)

YSBK Flight Activity (Flightaware)

Listeners: 2 out of 2249 total

Bankstown Tower: 132.800

Melbourne Center (124.1) (Archives)
Canberra, Australian Capital Territory, Australia

Feed Status: UP
Listen in your browser - HTML5 player(in browser, HTML5)
Click here to listen with your own player(launches your MP3 player)

YSCB 022000Z AUTO 07004KT 9999 // OVC026 04/04 Q1022

YSCB Flight Activity (Flightaware)

Listeners: 0 out of 2249 total

Melbourne Center: 124.100

Melbourne Center (128.4) (Archives)
Canberra, Australian Capital Territory, Australia

Feed Status: UP
Listen in your browser - HTML5 player(in browser, HTML5)
Click here to listen with your own player(launches your MP3 player)

YSCB 022000Z AUTO 07004KT 9999 // OVC026 04/04 Q1022

YSCB Flight Activity (Flightaware)

Listeners: 0 out of 2249 total

Melbourne Center: 128.400

YSCB App/Dep (Archives)
Canberra, Australian Capital Territory, Australia

Feed Status: UP
Listen in your browser - HTML5 player(in browser, HTML5)
Click here to listen with your own player(launches your MP3 player)

YSCB 022000Z AUTO 07004KT 9999 // OVC026 04/04 Q1022

YSCB Flight Activity (Flightaware)

Listeners: 0 out of 2249 total

Canberra Approach/Departure (East): 124.500
Canberra Approach/Departure (West): 125.900

YSCB App/Dep (East) (Archives)
Canberra, Australian Capital Territory, Australia

Feed Status: UP
Listen in your browser - HTML5 player(in browser, HTML5)
Click here to listen with your own player(launches your MP3 player)

YSCB 022000Z AUTO 07004KT 9999 // OVC026 04/04 Q1022

YSCB Flight Activity (Flightaware)

Listeners: 0 out of 2249 total

Canberra Approach/Departure (East): 124.500

YSCB App/Dep (West) (Archives)
Canberra, Australian Capital Territory, Australia

Feed Status: UP
Listen in your browser - HTML5 player(in browser, HTML5)
Click here to listen with your own player(launches your MP3 player)

YSCB 022000Z AUTO 07004KT 9999 // OVC026 04/04 Q1022

YSCB Flight Activity (Flightaware)

Listeners: 0 out of 2249 total

Canberra Approach/Departure (West): 125.900

YSCB ATIS (Archives)
Canberra, Australian Capital Territory, Australia

Feed Status: UP
Listen in your browser - HTML5 player(in browser, HTML5)
Click here to listen with your own player(launches your MP3 player)

YSCB 022000Z AUTO 07004KT 9999 // OVC026 04/04 Q1022

YSCB Flight Activity (Flightaware)

Listeners: 0 out of 2249 total

Canberra ATIS: 127.450

YSCB Tower (Archives)
Canberra, Australian Capital Territory, Australia

Feed Status: UP
Listen in your browser - HTML5 player(in browser, HTML5)
Click here to listen with your own player(launches your MP3 player)

YSCB 022000Z AUTO 07004KT 9999 // OVC026 04/04 Q1022

YSCB Flight Activity (Flightaware)

Listeners: 0 out of 2249 total

Canberra Tower: 118.700

YSCB Twr/App/Dep (Archives)
Canberra, Australian Capital Territory, Australia

Feed Status: UP
Listen in your browser - HTML5 player(in browser, HTML5)
Click here to listen with your own player(launches your MP3 player)

YSCB 022000Z AUTO 07004KT 9999 // OVC026 04/04 Q1022

YSCB Flight Activity (Flightaware)

Listeners: 0 out of 2249 total

Canberra Approach/Departure (East): 124.500
Canberra Approach/Departure (West): 125.900
Canberra Tower: 118.700

YSCN Tower/CTAF (Archives)
Camden, New South Wales, Australia

Feed Status: UP
Listen in your browser - HTML5 player(in browser, HTML5)
Click here to listen with your own player(launches your MP3 player)

YSCN Flight Activity (Flightaware)

Listeners: 0 out of 2249 total

Camden Tower/CTAF: 120.100

YSNW Gnd/CTAF/App/Center
Nowra, New South Wales, Australia

Feed Status: DOWN
Offline since: 2022-01-31 23:44:05 UTC


Enroute: 132.300
Nowra Approach: 123.500
Nowra CTAF: 118.850
Nowra Ground: 135.850

Brisbane Center (124.625/YSSY) (Archives)
Sydney, New South Wales, Australia

Feed Status: UP
Listen in your browser - HTML5 player(in browser, HTML5)
Click here to listen with your own player(launches your MP3 player)

YSSY 022000Z 31006KT 9999 FEW020 11/09 Q1021

YSSY Flight Activity (Flightaware)

Listeners: 1 out of 2249 total

Brisbane Center: 124.625

Brisbane Center (124.95/YSSY) (Archives)
Sydney, New South Wales, Australia

Feed Status: UP
Listen in your browser - HTML5 player(in browser, HTML5)
Click here to listen with your own player(launches your MP3 player)

YSSY 022000Z 31006KT 9999 FEW020 11/09 Q1021

YSSY Flight Activity (Flightaware)

Listeners: 1 out of 2249 total

Brisbane Center: 124.950

Brisbane Center (125.0/YSSY) (Archives)
Sydney, New South Wales, Australia

Feed Status: UP
Listen in your browser - HTML5 player(in browser, HTML5)
Click here to listen with your own player(launches your MP3 player)

YSSY 022000Z 31006KT 9999 FEW020 11/09 Q1021

YSSY Flight Activity (Flightaware)

Listeners: 1 out of 2249 total

Brisbane Center: 125.000

Brisbane Center (128.6/YSSY) (Archives)
Sydney, New South Wales, Australia

Feed Status: UP
Listen in your browser - HTML5 player(in browser, HTML5)
Click here to listen with your own player(launches your MP3 player)

YSSY 022000Z 31006KT 9999 FEW020 11/09 Q1021

YSSY Flight Activity (Flightaware)

Listeners: 4 out of 2249 total

Brisbane Center: 128.600

YSSY Approach (North/East) (Archives)
Sydney, New South Wales, Australia

Feed Status: UP
Listen in your browser - HTML5 player(in browser, HTML5)
Click here to listen with your own player(launches your MP3 player)

YSSY 022000Z 31006KT 9999 FEW020 11/09 Q1021

YSSY Flight Activity (Flightaware)

Listeners: 2 out of 2249 total

Sydney Approach (North/East): 124.400

YSSY Approach (South) (Archives)
Sydney, New South Wales, Australia

Feed Status: UP
Listen in your browser - HTML5 player(in browser, HTML5)
Click here to listen with your own player(launches your MP3 player)

YSSY 022000Z 31006KT 9999 FEW020 11/09 Q1021

YSSY Flight Activity (Flightaware)

Listeners: 1 out of 2249 total

Sydney Approach (South/West): 128.300

YSSY ATIS (Archives)
Sydney, New South Wales, Australia

Feed Status: UP
Listen in your browser - HTML5 player(in browser, HTML5)
Click here to listen with your own player(launches your MP3 player)

YSSY 022000Z 31006KT 9999 FEW020 11/09 Q1021

YSSY Flight Activity (Flightaware)

Listeners: 1 out of 2249 total

Sydney ATIS: 118.550

YSSY Center (South/West) (Archives)
Sydney, New South Wales, Australia

Feed Status: UP
Listen in your browser - HTML5 player(in browser, HTML5)
Click here to listen with your own player(launches your MP3 player)

YSSY 022000Z 31006KT 9999 FEW020 11/09 Q1021

YSSY Flight Activity (Flightaware)

Listeners: 1 out of 2274 total

Sydney Center: 124.550

YSSY Del/Gnd (Archives)
Sydney, New South Wales, Australia

Feed Status: UP
Listen in your browser - HTML5 player(in browser, HTML5)
Click here to listen with your own player(launches your MP3 player)

YSSY 022000Z 31006KT 9999 FEW020 11/09 Q1021

YSSY Flight Activity (Flightaware)

Listeners: 2 out of 2274 total

Sydney Clearance Delivery: 133.800
Sydney Ground (East of Rwys 16R/34L): 121.700
Sydney Ground (West of Rwys 16R/34L): 126.500

YSSY Departure (North/East) (Archives)
Sydney, New South Wales, Australia

Feed Status: UP
Listen in your browser - HTML5 player(in browser, HTML5)
Click here to listen with your own player(launches your MP3 player)

YSSY 022000Z 31006KT 9999 FEW020 11/09 Q1021

YSSY Flight Activity (Flightaware)

Listeners: 1 out of 2274 total

Sydney Departure (North/East): 123.000

YSSY Departure (South/West) (Archives)
Sydney, New South Wales, Australia

Feed Status: UP
Listen in your browser - HTML5 player(in browser, HTML5)
Click here to listen with your own player(launches your MP3 player)

YSSY 022000Z 31006KT 9999 FEW020 11/09 Q1021

YSSY Flight Activity (Flightaware)

Listeners: 1 out of 2274 total

Sydney Departure (Rte S, W and NW): 129.700

YSSY Director (Both)
Sydney, New South Wales, Australia

Feed Status: DOWN
Offline since: 2020-04-14 09:59:06 UTC

YSSY 022000Z 31006KT 9999 FEW020 11/09 Q1021

Sydney Director (East): 125.300
Sydney Director (West): 126.100

YSSY Director (East) (Archives)
Sydney, New South Wales, Australia

Feed Status: UP
Listen in your browser - HTML5 player(in browser, HTML5)
Click here to listen with your own player(launches your MP3 player)

YSSY 022000Z 31006KT 9999 FEW020 11/09 Q1021

YSSY Flight Activity (Flightaware)

Listeners: 1 out of 2274 total

Sydney Director (East): 125.300

YSSY Tower (Both) (Archives)
Sydney, New South Wales, Australia

Feed Status: UP
Listen in your browser - HTML5 player(in browser, HTML5)
Click here to listen with your own player(launches your MP3 player)

YSSY 022000Z 31006KT 9999 FEW020 11/09 Q1021

YSSY Flight Activity (Flightaware)

Listeners: 5 out of 2274 total

Sydney Tower (Rwy 16L/34R): 124.700
Sydney Tower (Rwy 16R/34L, Rwy 07/25): 120.500

YSSY Tower (Rwy 16L/34R) (Archives)
Sydney, New South Wales, Australia

Feed Status: UP
Listen in your browser - HTML5 player(in browser, HTML5)
Click here to listen with your own player(launches your MP3 player)

YSSY 022000Z 31006KT 9999 FEW020 11/09 Q1021

YSSY Flight Activity (Flightaware)

Listeners: 1 out of 2274 total

Sydney Tower (Rwy 16L/34R): 124.700

YSSY Tower (Rwys 16R/34L,7/25) (Archives)
Sydney, New South Wales, Australia

Feed Status: UP
Listen in your browser - HTML5 player(in browser, HTML5)
Click here to listen with your own player(launches your MP3 player)

YSSY 022000Z 31006KT 9999 FEW020 11/09 Q1021

YSSY Flight Activity (Flightaware)

Listeners: 1 out of 2274 total

Sydney Tower (Rwy 16R/34L, Rwy 07/25): 120.500

YSTW Gnd/Twr/Center (Archives)
Tamworth, New South Wales, Australia

Feed Status: UP
Listen in your browser - HTML5 player(in browser, HTML5)
Click here to listen with your own player(launches your MP3 player)

YSTW 022000Z AUTO 16009KT 9999 // NCD 05/04 Q1021 RF00.0/000.0

YSTW Flight Activity (Flightaware)

Listeners: 0 out of 2274 total

Brisbane Center: 127.100
Tamworth Ground: 121.900
Tamworth Tower: 118.250
Tamworth Tower: 119.400

YWBN CTAF/Center (Archives)
Wedderburn, New South Wales, Australia

Feed Status: UP
Listen in your browser - HTML5 player(in browser, HTML5)
Click here to listen with your own player(launches your MP3 player)

YWBN Flight Activity (Flightaware)

Listeners: 0 out of 2274 total

Sydney Center: 124.550
Wedderburn CTAF/Multicom: 122.550